BRITE-AUSTRIA

Last updated on Sat Sep 05 2026 00:03:37 GMT+0000 (Coordinated Universal Time)

1 39091U 13009F 26246.98359447 .00000078 00000+0 40937-4 0 9995 2 39091 98.4042 64.4939 0010367 11.9014 348.2415 14.36568314708361
UTC large
Height (km)
Speed (km/s)
/
Latitude / Longitude
Inclination (degrees)
Orbital Period (minutes)
Azimuth
Elevation
Range (km)
Doppler Factor

Next 0 passes for location: London (51.5072 / 0.1276)

No passes found over London.
BRITE-AUSTRIA